Location: Voyageurs National Park
(48.5020°N, 92.9292°W)
Time: 18:13:59
(UTC-05:00)

PCSat - Visible Passes

Search period start: 24 May 2015 00:00
Search period end: 03 June 2015 00:00
Orbit: 786 x 795 km, 67.1° (Epoch: 23 May)

Date Brightness Start Highest point End Pass type
(mag) Time Alt. Az. Time Alt. Az. Time Alt. Az.
24 May 11.7 00:53:28 11° ESE 00:54:04 11° ESE 00:55:54 10° E visible
24 May 9.6 02:34:10 33° SSW 02:36:38 70° ESE 02:42:04 10° NE visible
24 May 11.1 04:15:53 10° W 04:20:33 28° NW 04:25:12 10° NNE visible
25 May 9.9 02:04:04 36° S 02:05:56 53° ESE 02:11:15 10° NE visible
25 May 10.8 03:44:46 10° WSW 03:49:38 34° NW 03:54:34 10° NNE visible
26 May 10.2 01:33:54 33° SSE 01:35:18 40° ESE 01:40:22 10° NE visible
26 May 10.5 03:14:36 15° WSW 03:18:45 42° NW 03:23:54 10° NNE visible
27 May 10.6 01:03:43 28° SE 01:04:41 30° ESE 01:09:25 10° NE visible
27 May 10.1 02:44:24 21° WSW 02:47:54 53° NW 02:53:14 10° NNE visible
27 May 11.8 04:29:07 10° WNW 04:32:37 17° NNW 04:36:03 10° NNE visible
28 May 10.9 00:33:28 22° ESE 00:34:06 23° ESE 00:38:20 10° ENE visible
28 May 9.8 02:14:09 27° SW 02:17:05 67° NW 02:22:32 10° NNE visible
28 May 11.7 03:57:39 10° WNW 04:01:34 19° NNW 04:05:25 10° NNE visible
29 May 11.2 00:03:11 17° ESE 00:03:32 17° ESE 00:07:03 10° ENE visible
29 May 9.5 01:43:52 34° SW 01:46:20 86° NW 01:51:49 10° NE visible
29 May 11.5 03:26:17 10° W 03:30:34 23° NNW 03:34:48 10° NNE visible
29 May 11.5 23:32:50 12° ESE 23:33:01 12° ESE 23:35:17 10° E visible
30 May 9.5 01:13:31 38° SSW 01:15:36 74° ESE 01:21:03 10° NE visible
30 May 11.3 02:54:58 10° W 02:59:36 27° NW 03:04:10 10° NNE visible
31 May 9.7 00:43:06 38° S 00:44:55 56° ESE 00:50:15 10° NE visible
31 May 11.0 02:23:47 10° WSW 02:28:39 32° NW 02:33:32 10° NNE visible
31 May 12.1 04:11:22 10° NW 04:13:51 13° NNW 04:16:15 10° N visible
01 Jun 10.0 00:12:37 33° SSE 00:14:16 42° ESE 00:19:23 10° NE visible
01 Jun 10.7 01:53:18 13° WSW 01:57:46 40° NW 02:02:52 10° NNE visible
01 Jun 12.1 03:39:47 10° NW 03:42:45 14° NNW 03:45:37 10° NNE visible
01 Jun 10.4 23:42:04 27° SE 23:43:38 32° ESE 23:48:27 10° NE visible
02 Jun 10.3 01:22:43 16° WSW 01:26:54 50° NW 01:32:12 10° NNE visible
02 Jun 12.0 03:08:15 10° WNW 03:11:40 16° NNW 03:15:00 10° NNE visible
02 Jun 10.7 23:11:23 21° SE 23:13:03 24° ESE 23:17:24 10° ENE visible
